Weather reports worldwide

Advertisment
London/Heathrow Intl, United Kingdom (3772): temperature & dewpoint: 15.01.2020 22:00:00 - 21.01.2020 22:00:00 (GMT)London/Heathrow Intl, United Kingdom (3772): wind speed & gusts: 15.01.2020 22:00:00 - 21.01.2020 22:00:00 (GMT)London/Heathrow Intl, United Kingdom (3772): wind direction: 15.01.2020 22:00:00 - 21.01.2020 22:00:00 (GMT)London/Heathrow Intl, United Kingdom (3772): reduced air pressure: 15.01.2020 22:00:00 - 21.01.2020 22:00:00 (GMT)London/Heathrow Intl, United Kingdom (3772): visibility: 15.01.2020 22:00:00 - 21.01.2020 22:00:00 (GMT)London/Heathrow Intl, United Kingdom (3772): sunshine duration: 15.01.2020 22:00:00 - 21.01.2020 22:00:00 (GMT)London/Heathrow Intl, United Kingdom (3772): precipitation: 15.01.2020 22:00:00 - 21.01.2020 22:00:00 (GMT)
Date & Time tt [°C] td [°C] ff [km/h] ff [kn] fx [km/h] fx [kn] dd ppp [hPa] vv [km] sd [min] rr [mm]
21.01.2020 22:00:00 3,1 1,9 8 4 - - WNW 1039,8 8 0 0,0
21.01.2020 21:00:00 3,1 1,6 8 4 - - W 1039,7 9 0 0,0
21.01.2020 20:00:00 3,3 1,6 8 4 - - NW 1040,0 10 0 0,0
21.01.2020 19:00:00 4,7 2,4 8 4 - - W 1040,0 10 0 0,0
21.01.2020 18:00:00 4,5 2,1 4 2 - - WNW 1040,2 10 0 0,0
21.01.2020 17:00:00 5,8 2,5 9 5 - - W 1040,3 10 0 0,0
21.01.2020 16:00:00 6,5 2,7 11 6 - - W 1040,4 10 30 0,0
21.01.2020 15:00:00 7,9 3,1 8 4 - - W 1040,8 10 60 0,0
21.01.2020 14:00:00 7,5 2,6 8 4 - - W 1040,9 17 54 0,0
21.01.2020 13:00:00 7,4 3,1 8 4 - - SW 1041,7 10 60 0,0
21.01.2020 12:00:00 5,7 2,4 8 4 - - S 1042,5 9 54 0,0
21.01.2020 11:00:00 4,4 2,3 9 5 - - S 1043,0 8 60 0,0
21.01.2020 10:00:00 0,7 0,2 5 3 - - W 1043,0 5 6 0,0
21.01.2020 09:00:00 -0,2 -0,6 8 4 - - WNW 1043,2 6 0 0,0
21.01.2020 08:00:00 -0,7 -1,0 5 3 - - - 1042,9 5 0 0,0
21.01.2020 07:00:00 -0,6 -0,9 5 3 - - WNW 1042,7 5 0 0,0
21.01.2020 06:00:00 -0,7 -1,0 8 4 - - W 1042,9 4,4 0 0,0
21.01.2020 05:00:00 -2,0 -2,5 5 3 - - SW 1042,8 3,3 0 0,0
21.01.2020 04:00:00 -1,0 -1,3 5 3 - - WNW 1043,1 4,5 0 0,0
21.01.2020 03:00:00 -1,0 -1,3 4 2 - - NW 1043,5 5 0 0,0
21.01.2020 02:00:00 -0,6 -1,0 2 1 - - S 1044,2 5 0 0,0
21.01.2020 01:00:00 -0,6 -1,2 5 3 - - S 1044,2 5 0 0,0
21.01.2020 00:00:00 0,2 -0,7 5 3 - - W 1044,9 6 - 0,0
20.01.2020 23:00:00 1,4 0,4 4 2 - - NW 1045,1 8 0 0,0
20.01.2020 22:00:00 2,4 1,1 2 1 - - WNW 1045,2 11 0 0,0
20.01.2020 21:00:00 3,4 1,8 9 5 - - W 1045,7 10 0 0,0
20.01.2020 20:00:00 3,7 1,4 5 3 - - WNW 1045,7 10 0 0,0
20.01.2020 19:00:00 4,0 1,4 5 3 - - WNW 1045,9 17 0 0,0
20.01.2020 18:00:00 4,6 1,5 4 2 - - W 1046,2 18 0 0,0
20.01.2020 17:00:00 6,1 1,5 11 6 - - SW 1046,2 10 0 0,0
20.01.2020 16:00:00 7,0 1,5 8 4 - - W 1046,6 10 30 0,0
20.01.2020 15:00:00 8,2 2,1 8 4 - - SW 1046,9 10 60 0,0
20.01.2020 14:00:00 7,9 1,8 8 4 - - SW 1047,4 10 54 0,0
20.01.2020 13:00:00 5,6 2,1 8 4 - - W 1048,0 10 12 0,0
20.01.2020 12:00:00 5,6 2,1 2 1 - - SSW 1048,4 16 6 0,0
20.01.2020 11:00:00 4,0 1,0 5 3 - - W 1048,9 17 0 0,0
20.01.2020 10:00:00 3,2 0,7 5 3 - - W 1049,0 18 0 0,0
20.01.2020 09:00:00 2,5 0,8 5 3 - - - 1048,9 10 0 0,0
20.01.2020 08:00:00 2,0 0,4 5 3 - - - 1049,1 10 0 0,0
20.01.2020 07:00:00 1,7 0,5 5 3 - - - 1048,9 10 0 0,0
20.01.2020 06:00:00 1,0 0,4 4 2 - - - 1048,9 9 0 0,0
20.01.2020 05:00:00 0,7 -0,4 5 3 - - - 1048,7 10 0 0,0
20.01.2020 04:00:00 1,1 -0,3 4 2 - - - 1049,1 10 0 0,0
20.01.2020 03:00:00 1,1 -0,1 5 3 - - NW 1048,9 10 0 0,0
20.01.2020 02:00:00 0,8 -0,3 9 5 - - W 1049,1 8 0 0,0
20.01.2020 01:00:00 0,8 -0,2 4 2 - - WNW 1049,5 10 0 0,0
20.01.2020 00:00:00 1,2 -0,3 5 3 - - W 1049,6 10 - 0,0
19.01.2020 23:00:00 0,9 0,2 4 2 - - - 1049,5 8 0 0,0
19.01.2020 22:00:00 0,6 -0,3 5 3 - - - 1049,1 10 0 0,0
19.01.2020 21:00:00 1,8 0,0 4 2 - - NW 1049,1 9 0 0,0
19.01.2020 20:00:00 2,1 0,3 0 0 - - N 1048,7 10 0 0,0
19.01.2020 19:00:00 2,0 -0,1 2 1 - - - 1048,6 10 0 0,0
19.01.2020 18:00:00 3,7 0,7 4 2 - - NNW 1048,1 20 0 0,0
19.01.2020 17:00:00 5,2 0,9 5 3 - - - 1047,4 10 0 0,0
19.01.2020 16:00:00 6,8 1,1 4 2 - - - 1046,8 10 30 0,0
19.01.2020 15:00:00 7,5 1,0 5 3 - - - 1046,4 22 60 0,0
19.01.2020 14:00:00 7,5 1,3 8 4 - - NW 1045,9 10 54 0,0
19.01.2020 13:00:00 6,8 1,0 8 4 - - N 1045,9 10 60 0,0
19.01.2020 12:00:00 5,4 1,2 8 4 - - WNW 1045,9 10 54 0,0
19.01.2020 11:00:00 3,5 0,4 9 5 - - WNW 1045,5 10 60 0,2
19.01.2020 10:00:00 1,9 0,0 5 3 - - NW 1045,0 21 42 0,0
19.01.2020 09:00:00 0,1 -0,7 4 2 - - W 1044,3 10 0 0,0
19.01.2020 08:00:00 -0,7 -1,4 5 3 - - W 1043,1 10 0 0,0
19.01.2020 07:00:00 -0,5 -1,2 8 4 - - NW 1041,9 10 0 0,0
19.01.2020 06:00:00 0,0 -0,6 5 3 - - WNW 1041,1 10 0 0,0
19.01.2020 05:00:00 0,2 -0,2 8 4 - - WNW 1040,2 18 0 0,0
19.01.2020 04:00:00 -0,2 -0,7 4 2 - - NW 1039,7 10 0 0,0
19.01.2020 03:00:00 -0,1 -0,7 4 2 - - NW 1039,1 10 0 0,0
19.01.2020 02:00:00 0,2 -0,6 5 3 - - WNW 1038,3 10 0 0,0
19.01.2020 01:00:00 0,5 -1,2 4 2 - - W 1037,4 20 0 0,0
19.01.2020 00:00:00 2,1 0,2 8 4 - - WNW 1036,4 10 - 0,0
18.01.2020 23:00:00 2,0 0,1 5 3 - - WNW 1035,3 13 0 0,0
18.01.2020 22:00:00 2,6 0,6 5 3 - - WNW 1034,7 10 0 0,0
18.01.2020 21:00:00 2,7 0,4 9 5 - - WNW 1034,0 10 0 0,0
18.01.2020 20:00:00 3,5 0,8 5 3 - - WNW 1033,4 10 0 0,0
18.01.2020 19:00:00 4,2 1,0 8 4 - - WNW 1032,6 10 0 0,0
18.01.2020 18:00:00 4,3 0,8 5 3 - - NW 1031,8 10 0 0,0
18.01.2020 17:00:00 4,7 0,7 4 2 - - - 1031,0 10 0 0,0
18.01.2020 16:00:00 6,1 0,7 8 4 - - NW 1030,3 26 18 0,0
18.01.2020 15:00:00 7,3 0,2 13 7 - - NW 1029,6 10 60 0,0
18.01.2020 14:00:00 7,8 0,7 13 7 - - NW 1029,0 29 54 0,0
18.01.2020 13:00:00 7,5 2,9 13 7 - - W 1028,5 10 60 0,0
18.01.2020 12:00:00 6,8 2,6 9 5 - - W 1028,2 10 54 0,0
18.01.2020 11:00:00 4,8 1,3 4 2 - - WNW 1027,9 24 60 0,0
18.01.2020 10:00:00 3,1 1,3 9 5 - - W 1027,2 10 42 0,0
18.01.2020 09:00:00 1,6 0,8 11 6 - - W 1026,7 10 0 0,0
18.01.2020 08:00:00 1,3 0,4 8 4 - - WNW 1026,2 10 0 0,0
18.01.2020 07:00:00 0,9 0,1 13 7 - - W 1025,3 23 0 0,0
18.01.2020 06:00:00 1,4 0,7 11 6 - - W 1024,6 10 0 0,0
18.01.2020 05:00:00 1,2 0,6 11 6 - - W 1023,5 10 0 0,0
18.01.2020 04:00:00 1,8 1,1 11 6 - - W 1023,2 10 0 0,0
18.01.2020 03:00:00 2,2 1,7 11 6 - - W 1022,5 10 0 0,0
18.01.2020 02:00:00 2,0 1,2 15 8 - - W 1022,2 10 0 0,0
18.01.2020 01:00:00 1,7 0,9 13 7 - - W 1021,3 35 0 0,0
18.01.2020 00:00:00 2,7 1,4 15 8 - - W 1020,5 10 - 0,0
17.01.2020 23:00:00 2,5 1,2 16 9 - - W 1019,6 45 0 0,0
17.01.2020 22:00:00 3,7 1,8 16 9 - - WSW 1018,8 10 0 0,0
17.01.2020 21:00:00 4,2 1,5 16 9 - - WSW 1018,1 10 0 0,0
17.01.2020 20:00:00 4,6 1,8 18 10 - - SW 1017,9 45 0 0,0
17.01.2020 19:00:00 4,8 2,4 15 8 - - SW 1017,5 10 0 0,0
17.01.2020 18:00:00 5,4 2,2 18 10 - - WSW 1017,2 10 0 0,0
17.01.2020 17:00:00 5,7 2,2 21 11 - - WSW 1016,6 10 0 0,0
17.01.2020 16:00:00 6,2 2,4 24 13 - - W 1015,8 10 6 0,0
17.01.2020 15:00:00 7,1 2,0 26 14 - - W 1014,8 10 18 0,0
17.01.2020 14:00:00 8,1 2,0 31 17 55 30 W 1013,4 60 36 0,0
17.01.2020 13:00:00 7,7 2,4 41 22 67 36 W 1012,3 10 0 0,0
17.01.2020 12:00:00 7,6 3,7 44 24 65 35 WSW 1010,9 10 0 0,0
17.01.2020 11:00:00 8,6 4,8 31 17 52 28 WSW 1009,8 10 18 0,0
17.01.2020 10:00:00 9,5 6,5 22 12 - - SSW 1008,9 10 30 0,0
17.01.2020 09:00:00 8,3 6,7 16 9 - - SSW 1008,8 10 0 0,6
17.01.2020 08:00:00 8,2 6,8 13 7 - - SSW 1008,8 10 0 0,0
17.01.2020 07:00:00 8,4 6,5 15 8 - - SSW 1008,6 10 0 0,4
17.01.2020 06:00:00 7,5 6,3 34 18 61 33 WSW 1009,0 5 0 1,6
17.01.2020 05:00:00 9,7 8,5 13 7 - - S 1007,9 19 0 0,0
17.01.2020 04:00:00 9,9 8,7 11 6 - - S 1008,5 20 0 0,0
17.01.2020 03:00:00 10,4 9,3 15 8 - - S 1009,0 10 0 0,0
17.01.2020 02:00:00 10,0 9,2 11 6 - - S 1009,3 10 0 0,0
17.01.2020 01:00:00 10,3 9,3 11 6 - - SSW 1009,3 10 0 0,0
17.01.2020 00:00:00 10,6 9,7 15 8 - - SSW 1009,7 10 - 0,2
16.01.2020 23:00:00 10,9 9,7 16 9 - - S 1009,8 13 0 0,2
16.01.2020 22:00:00 11,2 9,7 21 11 - - SSW 1009,8 10 0 0,2
16.01.2020 21:00:00 11,3 9,7 31 17 - - SSW 1009,3 10 0 0,4
16.01.2020 20:00:00 11,0 9,5 29 16 52 28 S 1009,6 10 0 1,4
16.01.2020 19:00:00 12,3 8,5 29 16 48 26 S 1009,4 10 0 0,2
16.01.2020 18:00:00 11,6 8,3 29 16 48 26 S 1009,8 4,5 0 0,2
16.01.2020 17:00:00 12,0 7,5 22 12 - - S 1009,6 30 0 0,0
16.01.2020 16:00:00 11,2 7,8 24 13 46 25 S 1010,5 20 0 0,2
16.01.2020 15:00:00 11,3 7,3 24 13 48 26 S 1011,1 10 0 0,0
16.01.2020 14:00:00 10,4 7,6 24 13 - - S 1011,5 10 0 0,0
16.01.2020 13:00:00 10,6 7,3 24 13 - - S 1013,3 10 0 0,0
16.01.2020 12:00:00 10,0 7,0 24 13 - - SSE 1014,4 30 24 0,0
16.01.2020 11:00:00 9,6 6,7 24 13 - - SSE 1015,8 30 0 0,0
16.01.2020 10:00:00 9,3 6,7 21 11 - - SSE 1016,7 10 0 0,0
16.01.2020 09:00:00 8,4 6,6 24 13 - - SSE 1017,0 27 0 0,0
16.01.2020 08:00:00 7,2 5,3 16 9 - - SE 1017,4 24 0 0,0
16.01.2020 07:00:00 6,6 5,3 15 8 - - SSE 1017,8 10 0 0,0
16.01.2020 06:00:00 5,8 4,5 11 6 - - SSE 1018,3 10 0 0,0
16.01.2020 05:00:00 5,5 4,3 11 6 - - SSE 1019,2 10 0 0,0
16.01.2020 04:00:00 6,4 4,8 9 5 - - S 1019,5 10 0 0,0
16.01.2020 03:00:00 7,3 5,5 16 9 - - S 1019,4 20 0 0,0
16.01.2020 02:00:00 7,1 5,5 11 6 - - S 1019,2 10 0 0,0
16.01.2020 01:00:00 6,9 4,6 11 6 - - SSW 1018,7 10 0 0,0
16.01.2020 00:00:00 6,8 4,4 15 8 - - S 1018,6 21 - 0,0
15.01.2020 23:00:00 6,7 4,5 13 7 - - S 1018,3 21 0 0,0
15.01.2020 22:00:00 6,5 3,9 15 8 - - SSW 1017,7 10 0 0,0

tt = temperature
td = dewpoint
ff = wind speed
fx = gusts
dd = wind direction
ppp = reduced air pressure
vv = visibility
sd = sunshine duration
rr = precipitation

Next stations